Location: Unspecified
(50.7693°N, 0.0000°E)
Time: 18:33:12
(UTC+00:00)

deb Explorer IX - Pass Details

Date: 25 June 2019
Orbit: 539 x 1112 km, 38.8° (Epoch: 15 July)

Event Time Altitude Azimuth Distance (km) Brightness Sun altitude
Rises 17:32:45 0° 265° (W) 3,931 ? 22.5°
Reaches altitude 10° 17:36:41 10° 246° (WSW) 2,971 ? 21.9°
Maximum altitude 17:40:55 16° 210° (SSW) 2,487 ? 21.3°
Drops below altitude 10° 17:45:02 10° 175° (S) 2,874 ? 20.6°
Sets 17:48:45 0° 155° (SSE) 3,743 ? 20.0°
